Weather History for KDIJ - August, 2013

Change the Weather History Date:

Sunday, August 25, 2013

  Actual Average (KRXE) Record (KRXE)
Temperature  
Mean Temperature 64 °F 64 °F  
Max Temperature 81 °F 81 °F 95 °F (2015)
Min Temperature 48 °F 47 °F 39 °F (1998)
Degree Days  
Heating Degree Days 0 2  
Month to date heating degree days 23  
Since 1 June heating degree days 225  
Since 1 July heating degree days 53  
Cooling Degree Days 0 1  
Month to date cooling degree days 79  
Year to date cooling degree days 193  
Since 1 June cooling degree days 189  
Growing Degree Days 14 (Base 50)    
Moisture  
Dew Point 44 °F    
Average Humidity 48    
Maximum Humidity 86    
Minimum Humidity 23    
Precipitation  
Precipitation 0.00 in 0.03 in 0.40 in (1984)
Month to date precipitation 0.72  
Year to date precipitation 8.68  
Sea Level Pressure  
Sea Level Pressure 29.97 in    
Wind  
Wind Speed 6 mph (SSE)    
Max Wind Speed 13 mph    
Max Gust Speed -    
Visibility 9 miles    
Events Thunderstorm    
T = Trace of Precipitation, MM = Missing Value Source: NWS Daily Summary

Daily Weather History Graph

Daily Weather History Graph

Search for Another Location

Airport or City:

Trip Planner

Search our weather history database for the weather conditions in past years. The results will help you decide how hot, cold, wet, or windy it might be!

Date:

Astronomy

Aug. 25, 2013 Rise Set
Actual Time 6:40 AM MDT 8:11 PM MDT
Civil Twilight 6:10 AM MDT 8:41 PM MDT
Nautical Twilight 5:33 AM MDT 9:17 PM MDT
Astronomical Twilight 4:54 AM MDT 9:56 PM MDT
Moon 10:32 PM MDT (8/25) 11:57 AM MDT (8/25)
Length of Visible Light 14h 31m
Length of Day
13h 31m
Waning Gibbous, 75% of the Moon is Illuminated
Aug 25
Waning Gibbous
Aug 28
Last Quarter
Sep 5
New
Sep 12
First Quarter
Sep 19
Full

Hourly Weather History & Observations

Time (MDT) Temp. Dew Point Humidity Pressure Visibility Wind Dir Wind Speed Gust Speed Precip Events Conditions
12:56 AM 57.9 °F 47.8 °F 69% 29.96 in 10.0 mi West 4.6 mph - N/A   Scattered Clouds
1:56 AM 55.9 °F 48.9 °F 77% 29.96 in 10.0 mi North 5.8 mph - N/A   Overcast
2:56 AM 54.0 °F 48.9 °F 83% 29.95 in 10.0 mi ENE 5.8 mph - N/A   Partly Cloudy
3:56 AM 54.0 °F 47.8 °F 80% 29.96 in 10.0 mi Calm Calm - N/A   Partly Cloudy
4:56 AM 52.0 °F 47.8 °F 86% 29.97 in 10.0 mi ENE 6.9 mph - N/A   Clear
5:56 AM 52.0 °F 45.9 °F 80% 29.99 in 10.0 mi East 6.9 mph - N/A   Clear
6:56 AM 48.9 °F 45.0 °F 86% 30.03 in 9.0 mi SE 4.6 mph - N/A   Clear
7:56 AM 54.9 °F 47.8 °F 77% 30.04 in 9.0 mi Calm Calm - N/A   Clear
8:56 AM 64.9 °F 45.9 °F 50% 30.02 in 8.0 mi Calm Calm - N/A   Clear
9:56 AM 70.9 °F 45.9 °F 41% 30.02 in 9.0 mi SSW 6.9 mph - N/A   Clear
10:56 AM 73.9 °F 43.9 °F 34% 30.01 in 9.0 mi SSW 12.7 mph - N/A   Clear
11:56 AM 75.9 °F 43.9 °F 32% 29.99 in 9.0 mi SW 10.4 mph - N/A   Clear
12:56 PM 75.9 °F 43.0 °F 31% 29.97 in 9.0 mi SW 8.1 mph - N/A   Clear
1:56 PM 79.0 °F 43.9 °F 29% 29.95 in 8.0 mi SW 11.5 mph - N/A   Clear
2:56 PM 79.9 °F 43.9 °F 28% 29.94 in 8.0 mi WSW 8.1 mph - N/A   Clear
3:56 PM 81.9 °F 41.9 °F 24% 29.91 in 8.0 mi South 10.4 mph - N/A   Clear
4:56 PM 77.0 °F 38.8 °F 25% 29.93 in 8.0 mi SE 10.4 mph - N/A   Scattered Clouds
5:14 PM 80.6 °F 39.2 °F 23% 30.17 in 8.0 mi SE 9.2 mph - N/A Thunderstorm Partly Cloudy
5:29 PM 80.6 °F 39.2 °F 23% 30.16 in 9.0 mi South 12.7 mph - N/A   Clear
5:56 PM 81.0 °F 39.9 °F 23% 29.89 in 8.0 mi Variable 6.9 mph - N/A   Partly Cloudy
6:56 PM 77.9 °F 38.8 °F 25% 29.91 in 8.0 mi South 11.5 mph - N/A   Partly Cloudy
7:56 PM 72.9 °F 43.0 °F 34% 29.91 in 8.0 mi NE 4.6 mph - N/A   Scattered Clouds
8:56 PM 64.9 °F 45.0 °F 48% 29.91 in 10.0 mi ESE 5.8 mph - N/A   Partly Cloudy
9:56 PM 64.9 °F 43.0 °F 45% 29.91 in 10.0 mi SE 6.9 mph - N/A   Clear
10:56 PM 63.9 °F 43.0 °F 47% 29.91 in 10.0 mi SSW 3.5 mph - N/A   Clear
11:56 PM 61.0 °F 43.9 °F 53% 29.91 in 10.0 mi SSE 3.5 mph - N/A   Clear